Weather History for Farmington, MO

Change the Weather History Date:

Saturday, September 21, 2013

  Actual Average Record
Temperature  
Mean Temperature 61 °F -  
Max Temperature 71 °F 74 °F 89 °F (2010)
Min Temperature 51 °F 51 °F 41 °F (2000)
Degree Days  
Heating Degree Days 4    
Growing Degree Days 11 (Base 50)    
Moisture  
Dew Point 49 °F    
Average Humidity 70    
Maximum Humidity 88    
Minimum Humidity 41    
Precipitation  
Precipitation 0.00 in - - ()
Sea Level Pressure  
Sea Level Pressure 29.95 in    
Wind  
Wind Speed 5 mph (NNW)    
Max Wind Speed 12 mph    
Max Gust Speed 17 mph    
Visibility 10 miles    
Events      
Averages and records for this station are not official NWS values.
T = Trace of Precipitation, MM = Missing Value Source: NWS Daily Summary

Daily Weather History Graph

Daily Weather History Graph

Search for Another Location

Airport:

Trip Planner

Search our weather history database for the weather conditions in past years. The results will help you decide how hot, cold, wet, or windy it might be!

Date:

Astronomy

Sep. 21, 2013 Rise Set
Actual Time 6:48 AM CDT 6:59 PM CDT
Civil Twilight 6:22 AM CDT 7:25 PM CDT
Nautical Twilight 5:52 AM CDT 7:56 PM CDT
Astronomical Twilight 5:20 AM CDT 8:27 PM CDT
Moon 8:14 PM CDT (9/21) 9:04 AM CDT (9/21)
Length of Visible Light 13h 03m
Length of Day
12h 10m
Waning Gibbous, 94% of the Moon is Illuminated
Sep 21
Waning Gibbous
Sep 26
Last Quarter
Oct 4
New
Oct 11
First Quarter
Oct 18
Full

Hourly Weather History & Observations

Time (CDT) Temp. Dew Point Humidity Pressure Visibility Wind Dir Wind Speed Gust Speed Precip Events Conditions
12:15 AM 60.8 °F 55.4 °F 82% 29.94 in 10.0 mi NNW 8.1 mph - N/A   Clear
12:35 AM 60.8 °F 55.4 °F 82% 29.94 in 10.0 mi NNW 5.8 mph - N/A   Clear
12:55 AM 59.0 °F 53.6 °F 82% 29.94 in 10.0 mi NNW 3.5 mph - N/A   Clear
1:15 AM 59.0 °F 53.6 °F 82% 29.94 in 10.0 mi NNW 3.5 mph - N/A   Clear
1:35 AM 57.2 °F 53.6 °F 88% 29.94 in 10.0 mi Calm Calm - N/A   Clear
1:55 AM 57.2 °F 53.6 °F 88% 29.93 in 10.0 mi NNW 3.5 mph - N/A   Clear
2:15 AM 57.2 °F 53.6 °F 88% 29.93 in 10.0 mi NNW 4.6 mph - N/A   Clear
2:35 AM 57.2 °F 53.6 °F 88% 29.93 in 10.0 mi NNW 4.6 mph - N/A   Clear
2:55 AM 55.4 °F 51.8 °F 88% 29.93 in 10.0 mi NNW 4.6 mph - N/A   Clear
3:15 AM 55.4 °F 51.8 °F 88% 29.93 in 10.0 mi NNW 4.6 mph - N/A   Clear
3:35 AM 55.4 °F 51.8 °F 88% 29.93 in 10.0 mi NNW 3.5 mph - N/A   Clear
3:55 AM 55.4 °F 51.8 °F 88% 29.93 in 10.0 mi NNW 4.6 mph - N/A   Clear
4:15 AM 55.4 °F 51.8 °F 88% 29.93 in 10.0 mi NNW 5.8 mph - N/A   Clear
4:35 AM 55.4 °F 51.8 °F 88% 29.93 in 10.0 mi NNW 5.8 mph - N/A   Clear
4:55 AM 55.4 °F 50.0 °F 82% 29.93 in 10.0 mi NNW 3.5 mph - N/A   Clear
5:15 AM 53.6 °F 50.0 °F 88% 29.93 in 10.0 mi NW 4.6 mph - N/A   Clear
5:35 AM 53.6 °F 48.2 °F 82% 29.94 in 10.0 mi NW 3.5 mph - N/A   Clear
5:55 AM 53.6 °F 48.2 °F 82% 29.95 in 10.0 mi Calm Calm - N/A   Clear
6:15 AM 53.6 °F 48.2 °F 82% 29.95 in 10.0 mi Calm Calm - N/A   Clear
6:35 AM 51.8 °F 48.2 °F 88% 29.96 in 10.0 mi Calm Calm - N/A   Clear
6:55 AM 51.8 °F 48.2 °F 88% 29.96 in 10.0 mi Calm Calm - N/A   Clear
7:15 AM 51.8 °F 48.2 °F 88% 29.96 in 10.0 mi NNW 3.5 mph - N/A   Clear
7:35 AM 53.6 °F 50.0 °F 88% 29.96 in 10.0 mi NNW 3.5 mph - N/A   Clear
7:55 AM 55.4 °F 50.0 °F 82% 29.97 in 10.0 mi NNW 4.6 mph - N/A   Clear
8:15 AM 55.4 °F 50.0 °F 82% 29.97 in 10.0 mi NNW 5.8 mph - N/A   Clear
8:35 AM 57.2 °F 50.0 °F 77% 29.97 in 10.0 mi NNW 8.1 mph - N/A   Clear
8:55 AM 57.2 °F 51.8 °F 82% 29.98 in 10.0 mi NNW 9.2 mph - N/A   Clear
9:15 AM 57.2 °F 51.8 °F 82% 29.98 in 10.0 mi NNW 6.9 mph - N/A   Clear
9:35 AM 60.8 °F 51.8 °F 72% 29.98 in 10.0 mi NNW 6.9 mph - N/A   Clear
9:55 AM 60.8 °F 51.8 °F 72% 29.99 in 10.0 mi North 9.2 mph - N/A   Clear
10:15 AM 62.6 °F 48.2 °F 59% 29.99 in 10.0 mi North 8.1 mph - N/A   Clear
10:35 AM 62.6 °F 50.0 °F 63% 29.99 in 10.0 mi North 6.9 mph - N/A   Clear
10:55 AM 62.6 °F 50.0 °F 63% 30.00 in 10.0 mi NW 10.4 mph 17.3 mph N/A   Partly Cloudy
11:15 AM 64.4 °F 51.8 °F 64% 29.99 in 10.0 mi NNW 9.2 mph 16.1 mph N/A   Partly Cloudy
11:35 AM 64.4 °F 50.0 °F 59% 29.99 in 10.0 mi NNW 8.1 mph 16.1 mph N/A   Partly Cloudy
11:55 AM 64.4 °F 50.0 °F 59% 29.99 in 10.0 mi NNW 10.4 mph - N/A   Clear
12:15 PM 66.2 °F 50.0 °F 56% 29.98 in 10.0 mi NW 10.4 mph 16.1 mph N/A   Clear
12:35 PM 66.2 °F 50.0 °F 56% 29.98 in 10.0 mi NNW 8.1 mph - N/A   Clear
12:55 PM 66.2 °F 48.2 °F 52% 29.97 in 10.0 mi NNW 9.2 mph 16.1 mph N/A   Clear
1:15 PM 68.0 °F 46.4 °F 46% 29.97 in 10.0 mi NNW 10.4 mph - N/A   Clear
1:35 PM 68.0 °F 48.2 °F 49% 29.96 in 10.0 mi NW 6.9 mph - N/A   Clear
1:55 PM 69.8 °F 46.4 °F 43% 29.96 in 10.0 mi NNW 8.1 mph - N/A   Clear
2:15 PM 69.8 °F 46.4 °F 43% 29.95 in 10.0 mi NNW 8.1 mph 16.1 mph N/A   Clear
2:35 PM 69.8 °F 48.2 °F 46% 29.95 in 10.0 mi NW 5.8 mph - N/A   Clear
2:55 PM 69.8 °F 48.2 °F 46% 29.94 in 10.0 mi North 4.6 mph - N/A   Clear
3:15 PM 69.8 °F 48.2 °F 46% 29.94 in 10.0 mi NW 5.8 mph - N/A   Clear
3:35 PM 69.8 °F 46.4 °F 43% 29.93 in 10.0 mi NW 8.1 mph 16.1 mph N/A   Clear
3:55 PM 71.6 °F 46.4 °F 41% 29.93 in 10.0 mi NNW 6.9 mph - N/A   Clear
4:15 PM 71.6 °F 46.4 °F 41% 29.93 in 10.0 mi NNW 11.5 mph 16.1 mph N/A   Clear
4:35 PM 71.6 °F 46.4 °F 41% 29.93 in 10.0 mi NNW 10.4 mph - N/A   Clear
4:55 PM 71.6 °F 46.4 °F 41% 29.93 in 10.0 mi NNW 8.1 mph - N/A   Clear
5:15 PM 71.6 °F 48.2 °F 43% 29.93 in 10.0 mi North 3.5 mph - N/A   Clear
5:35 PM 69.8 °F 46.4 °F 43% 29.93 in 10.0 mi North 8.1 mph - N/A   Clear
5:55 PM 69.8 °F 46.4 °F 43% 29.93 in 10.0 mi North 5.8 mph - N/A   Clear
6:15 PM 69.8 °F 46.4 °F 43% 29.93 in 10.0 mi NNW 4.6 mph - N/A   Clear
6:35 PM 68.0 °F 46.4 °F 46% 29.93 in 10.0 mi NNW 4.6 mph - N/A   Clear
6:55 PM 66.2 °F 46.4 °F 49% 29.93 in 10.0 mi NNW 3.5 mph - N/A   Clear
7:15 PM 64.4 °F 46.4 °F 52% 29.93 in 10.0 mi Calm Calm - N/A   Clear
7:35 PM 62.6 °F 46.4 °F 55% 29.94 in 10.0 mi Calm Calm - N/A   Clear
7:55 PM 59.0 °F 48.2 °F 67% 29.95 in 10.0 mi Calm Calm - N/A   Clear
8:15 PM 59.0 °F 48.2 °F 67% 29.95 in 10.0 mi Calm Calm - N/A   Clear
8:35 PM 57.2 °F 50.0 °F 77% 29.95 in 10.0 mi Calm Calm - N/A   Clear
8:55 PM 55.4 °F 48.2 °F 77% 29.96 in 10.0 mi Calm Calm - N/A   Clear
9:15 PM 55.4 °F 50.0 °F 82% 29.96 in 10.0 mi Calm Calm - N/A   Clear
9:35 PM 53.6 °F 48.2 °F 82% 29.96 in 10.0 mi Calm Calm - N/A   Clear
9:55 PM 53.6 °F 50.0 °F 88% 29.96 in 10.0 mi Calm Calm - N/A   Clear
10:15 PM 51.8 °F 48.2 °F 88% 29.96 in 10.0 mi Calm Calm - N/A   Clear
10:35 PM 51.8 °F 48.2 °F 88% 29.96 in 10.0 mi Calm Calm - N/A   Clear
10:55 PM 51.8 °F 48.2 °F 88% 29.96 in 10.0 mi Calm Calm - N/A   Clear
11:15 PM 51.8 °F 48.2 °F 88% 29.97 in 10.0 mi Calm Calm - N/A   Clear
11:35 PM 51.8 °F 48.2 °F 88% 29.97 in 10.0 mi Calm Calm - N/A   Clear
11:55 PM 51.8 °F 48.2 °F 88% 29.97 in 10.0 mi Calm Calm - N/A   Clear